This demonstration page uses our WeatherBlox Daily Observations layout. Learn more.

Hourly Observations for October 31, 2015

Temp ( °F °C ) Dew Point ( °F °C ) Humidity (%) Winds ( mph kmh ) Pressure ( in mb ) Visibility ( mi km ) Precip ( " mm )
12:15 am 00:15 Cloudy with Light Drizzle 40 4.6 39 3.8 95 95 Calm 29.83 1010 7 11.26538 0 0
12:35 am 00:35 Cloudy with Light Drizzle 40 4.6 39 3.8 95 95 Calm 29.83 1010 10 16.0934 0 0
12:55 am 00:55 Cloudy 40 4.6 39 3.8 95 95 Calm 29.83 1010 7 11.26538 0 0
1:15 am 01:15 Cloudy 40 4.6 39 4 96 96 Calm 29.83 1010 7 11.26538 0 0
1:35 am 01:35 Cloudy 40 4.6 39 4 96 96 SW 3 6 29.83 1010 7 11.26538 0 0
1:55 am 01:55 Cloudy 40 4.6 39 4 96 96 SW 3 6 29.8 1009 10 16.0934 0 0
2:15 am 02:15 Cloudy 40 4.6 39 3.9 95 95 WSW 5 7 29.83 1010 10 16.0934 0 0
2:35 am 02:35 Cloudy 40 4.5 39 3.9 96 96 WSW 5 7 29.8 1009 10 16.0934 0 0
2:55 am 02:55 Cloudy 40 4.6 39 3.8 95 95 SW 3 6 29.8 1009 10 16.0934 0 0
3:15 am 03:15 Mostly Cloudy 40 4.2 38 3.5 95 95 WSW 3 6 29.8 1009 10 16.0934 0 0
3:35 am 03:35 Cloudy 40 4.3 38 3.5 95 95 W 6 9 29.8 1009 10 16.0934 0 0
3:55 am 03:55 Cloudy 40 4.2 38 3.5 95 95 Calm 29.77 1008 10 16.0934 0 0
4:15 am 04:15 Cloudy with Mist and Fog 39 4 38 3.3 95 95 WSW 7 11 29.8 1009 4 6.43736 0 0
4:35 am 04:35 Cloudy with Mist and Fog 39 4 38 3.2 95 95 W 8 13 29.8 1009 0.75 1.207005 0 0
4:55 am 04:55 Cloudy with Mist and Fog 40 4.2 38 3.6 96 96 W 9 15 29.8 1009 2.5 4.02335 0 0
5:15 am 05:15 Cloudy with Mist and Fog 40 4.5 39 3.8 95 95 W 7 11 29.77 1008 5 8.0467 0 0
5:35 am 05:35 Cloudy with Mist and Fog 40 4.7 39 4.1 96 96 W 7 11 29.77 1008 4 6.43736 0 0
5:55 am 05:55 Cloudy with Mist and Fog 41 5 40 4.3 95 95 W 9 15 29.77 1008 1.75 2.816345 0 0
6:15 am 06:15 Cloudy with Mist and Fog 41 5 40 4.5 97 97 W 9 15 29.77 1008 1.75 2.816345 0 0
6:35 am 06:35 Cloudy with Mist and Fog 41 5 40 4.5 97 97 W 9 15 29.77 1008 1.75 2.816345 0 0
6:55 am 06:55 Cloudy with Mist and Fog 41 5 40 4.5 97 97 W 8 13 29.77 1008 2.5 4.02335 0 0
7:15 am 07:15 Cloudy with Mist and Fog 40 4.5 39 3.9 96 96 W 6 9 29.77 1008 1.75 2.816345 0 0
7:35 am 07:35 Cloudy with Mist and Fog 40 4.5 39 4 97 97 WSW 5 7 29.77 1008 2.5 4.02335 0 0
7:55 am 07:55 Cloudy with Mist and Fog 40 4.4 39 3.9 97 97 WSW 6 9 29.77 1008 0.75 1.207005 0 0
8:15 am 08:15 Cloudy with Fog 39 4.1 38 3.5 96 96 WSW 7 11 29.8 1009 0.5 0.80467 0 0
8:35 am 08:35 Cloudy with Fog 39 4 38 3.5 97 97 SW 7 11 29.8 1009 0.25 0.402335 0 0
8:55 am 08:55 Cloudy with Mist and Fog 40 4.3 39 3.8 97 97 WSW 6 9 29.8 1009 1.25 2.011675 0 0
9:15 am 09:15 Cloudy with Mist and Fog 40 4.5 39 4 97 97 WSW 8 13 29.83 1010 2.5 4.02335 0 0
9:35 am 09:35 Mostly Cloudy with Mist and Fog 41 4.9 40 4.4 97 97 WSW 6 9 29.83 1010 5 8.0467 0 0
9:55 am 09:55 Partly Cloudy 42 5.8 42 5.3 97 97 WSW 7 11 29.83 1010 10 16.0934 0 0
10:15 am 10:15 Sunny 44 6.9 43 6 94 94 WSW 7 11 29.83 1010 10 16.0934 0 0
10:35 am 10:35 Sunny 46 8 42 5.3 83 83 W 9 15 29.8 1009 10 16.0934 0 0
10:55 am 10:55 Sunny 48 9 42 5.5 79 79 W 12 19 29.8 1009 10 16.0934 0 0
11:15 am 11:15 Sunny 50 10.1 42 5.8 75 75 WNW 8 13 29.8 1009 10 16.0934 0 0
11:35 am 11:35 Sunny 53 11.5 41 4.9 64 64 NW 12 19 29.77 1008 10 16.0934 0 0
11:55 am 11:55 Sunny 55 12.6 42 5.7 63 63 WNW 14 22 29.77 1008 10 16.0934 0 0
12:15 pm 12:15 Sunny 56 13.5 42 5.6 59 59 NW 10 17 29.74 1007 10 16.0934 0 0
12:35 pm 12:35 Sunny 58 14.2 43 6.2 59 59 NW 9 15 29.74 1007 10 16.0934 0 0
12:55 pm 12:55 Sunny 60 15.5 43 6.3 55 55 WNW 10 17 29.74 1007 10 16.0934 0 0
1:15 pm 13:15 Sunny 60 15.8 42 5.7 51 51 NW 10 17 29.74 1007 10 16.0934 0 0
1:35 pm 13:35 Sunny 62 16.5 42 5.7 49 49 NNW 9 15 29.74 1007 10 16.0934 0 0
1:55 pm 13:55 Sunny 62 16.9 42 5.7 48 48 NW 10 17 29.74 1007 10 16.0934 0 0
2:15 pm 14:15 Sunny 64 17.5 41 5.2 44 44 NW 10 17 29.71 1006 10 16.0934 0 0
2:35 pm 14:35 Sunny 64 18 40 4.5 41 41 NW 10 17 29.71 1006 10 16.0934 0 0
2:55 pm 14:55 Sunny 65 18.3 40 4.2 39 39 WNW 10 17 29.71 1006 10 16.0934 0 0
3:15 pm 15:15 Sunny 65 18.5 38 3.5 37 37 WNW 8 13 29.71 1006 10 16.0934 0 0
3:35 pm 15:35 Sunny 66 19 38 3.5 36 36 NW 8 13 29.71 1006 10 16.0934 0 0
3:55 pm 15:55 Sunny 66 19.1 38 3.1 35 35 WNW 8 13 29.71 1006 10 16.0934 0 0
4:15 pm 16:15 Sunny 67 19.2 37 3 34 34 W 9 15 29.71 1006 10 16.0934 0 0
4:35 pm 16:35 Sunny 67 19.3 37 2.7 33 33 NW 8 13 29.71 1006 10 16.0934 0 0
4:55 pm 16:55 Sunny 67 19.3 36 2.4 33 33 WNW 6 9 29.71 1006 10 16.0934 0 0
5:15 pm 17:15 Sunny 67 19.3 36 2.3 32 32 W 6 9 29.74 1007 10 16.0934 0 0
5:35 pm 17:35 Sunny 66 19.1 36 2 32 32 WNW 5 7 29.74 1007 10 16.0934 0 0
5:55 pm 17:55 Sunny 65 18.5 37 2.5 35 35 Calm 29.74 1007 10 16.0934 0 0
6:15 pm 18:15 Sunny 64 17.5 37 2.6 37 37 Calm 29.74 1007 10 16.0934 0 0
6:35 pm 18:35 Sunny 61 16.1 38 3.4 43 43 Calm 29.77 1008 10 16.0934 0 0
7:15 pm 19:15 Clear 58 14.5 39 3.9 49 49 SSW 7 11 29.77 1008 10 16.0934 0 0
7:35 pm 19:35 Clear 55 13 39 3.9 54 54 S 7 11 29.8 1009 10 16.0934 0 0
7:55 pm 19:55 Clear 55 12.8 38 3.5 53 53 S 7 11 29.8 1009 10 16.0934 0 0
8:15 pm 20:15 Clear 52 10.9 38 3.6 61 61 Calm 29.8 1009 10 16.0934 0 0
8:35 pm 20:35 Clear 54 12 38 3.1 55 55 SW 5 7 29.83 1010 10 16.0934 0 0
8:55 pm 20:55 Clear 53 11.6 38 3.3 57 57 WSW 5 7 29.83 1010 10 16.0934 0 0
9:15 pm 21:15 Clear 53 11.4 38 3.1 57 57 SW 3 6 29.8 1009 10 16.0934 0 0
9:35 pm 21:35 Clear 51 10.4 38 3.2 61 61 WSW 3 6 29.85 1011 10 16.0934 0 0
9:55 pm 21:55 Clear 52 11.1 37 3 58 58 WSW 5 7 29.85 1011 10 16.0934 0 0

Powered by AerisWeather